Regional Weather Roundup
Issued by NWS

Home | Current Version | Previous Version | Text Only | Print | Product List | Glossary Off
Versions: 1 2 3 4 5 6 7 8 9 10 11 12 13 14 15 16 17 18 19 20 21 22 23 24 25 26 27 28 29 30 31 32 33 34 35 36 37 38 39 40 41 42 43 44 45 46 47 48 49 50

000
ASUS43 KLOT 231003
RWRIL

ILLINOIS REGIONAL WEATHER ROUNDUP
NATIONAL WEATHER SERVICE CHICAGO/ROMEOVILLE IL
400 AM CST THU FEB 23 2017

NOTE: "FAIR" INDICATES FEW OR NO CLOUDS BELOW 12,000 FEET WITH NO
SIGNIFICANT WEATHER AND/OR OBSTRUCTIONS TO VISIBILITY.

* THESE STATIONS ARE NOT UNDER NWS QUALITY CONTROL. THEY ALSO MAY NOT
  REPORT WEATHER SUCH AS PRECIPITATION OR FOG.

ILZ001-002-007-009-015-016-024-231100-
NORTHWEST ILLINOIS

CITY           SKY/WX    TMP DP  RH WIND       PRES   REMARKS
MOLINE         PTCLDY   N/A N/A N/A NW12      29.75R
STERLING*      CLEAR     46  43  89 NW5       29.73R
SAVANNA*       PTCLDY    45  42  88 N14       29.74R
$$

ILZ003-004-008-010-011-017-018-231100-
NORTH CENTRAL ILLINOIS

CITY           SKY/WX    TMP DP  RH WIND       PRES   REMARKS
ROCKFORD       CLEAR     47  42  83 NW8       29.73R
FREEPORT*      CLEAR     43  41  93 NW10      29.74R
ROCHELLE*      CLEAR     46  43  89 NW7       29.72R
DE KALB*       CLEAR     47  43  88 W13       29.71R
PERU*          CLEAR     46  42  85 W8        29.73R
$$

ILZ005-006-012>014-019>023-231100-
NORTHEAST ILLINOIS

CITY           SKY/WX    TMP DP  RH WIND       PRES   REMARKS
CHICAGO-OHARE  CLEAR     50  45  83 W5        29.68R
CHICAGO-MIDWAY CLEAR     52  46  80 W7        29.69R
AURORA         CLEAR     47  43  86 W8        29.70S
LANSING*       CLEAR     52  50  93 W6        29.70R
JOLIET*        CLEAR     51  49  92 W3        29.70S
WAUKEGAN       CLEAR     50  43  77 W7        29.66R
DUPAGE AIRPORT CLEAR     45  41  86 SW7       29.69R
KANKAKEE*      FOG       44  44  97 CALM      29.72R VSB 1/4
WHEELING       CLEAR     50  43  77 SW3       29.69R
MORRIS*        CLEAR     45  43  95 W6        29.70R FOG
ROMEOVILLE*    CLEAR     48  48 100 W7        29.70S
NORTHERLY ISL    N/A     53  46  77 W5          N/A
$$

LMZ740>746-231100-
SOUTHERN LAKE MICHIGAN

STATION/POSITION SKY/WX   TEMP    WIND        PRES    VSBY  WAVE
                          AIR SEA DIR/SP/G                  HT/PER
                          (F)     (DEG/KT/KT) (MB)    (MI)  (FT/S)
HARRISON CRIB              55     270/ 11/ 12   N/A
BURNHAM HARBOR             53     280/  4/ 12   N/A
CALUMET HARBOR             54     250/  5/  9 1005.0R
BURNS HARBOR               51     260/ 14/ 15 1006.1R
MICHIGAN CITY              46     220/ 15/ 15   N/A
$$

ILZ025>027-034>036-040-047-049-050-058-095>099-231100-
WEST-CENTRAL ILLINOIS

CITY           SKY/WX    TMP DP  RH WIND       PRES   REMARKS
QUINCY         CLEAR     46  43  89 N8        29.73R
GALESBURG*     CLEAR     44  42  91 N6        29.73R
MACOMB*        CLEAR     45  43  93 N5        29.75S
JACKSONVILLE*  FOG       44  44  99 CALM      29.73R VSB 1/4
PITTSFIELD*    FOG       45  45  99 NW6       29.73S VSB 3/4
$$

ILZ028>032-037-038-041>044-048-051>054-059>061-231100-
CENTRAL ILLINOIS

CITY           SKY/WX    TMP DP  RH WIND       PRES   REMARKS
PONTIAC        CLEAR     49  48  98 NW6       29.71S FOG
BLOOMINGTON    FOG       44  44 100 SW5       29.73R VSB 1/4
DECATUR        CLEAR     50  49  96 S5        29.73S
PEORIA         CLEAR     48  47  96 N6        29.72S
LACON*         FOG       42  42 100 CALM      29.72R VSB 1/2
LINCOLN*       FOG       46  46 100 CALM      29.73R VSB 1/4
SPRINGFIELD    FOG       45  45 100 CALM      29.72S VSB 1/4
TAYLORVILLE    CLEAR     50  50  98 CALM      29.73S
$$

ILZ033-039-045-046-055>057-062-063-231100-
EAST-CENTRAL ILLINOIS

CITY           SKY/WX    TMP DP  RH WIND       PRES   REMARKS
CHAMPAIGN      CLEAR     49  46  90 SW7       29.73S FOG
RANTOUL*       CLEAR     54  52  95 W8        29.73R
MATTOON        PTCLDY    54  54 100 S8        29.74R
$$

ILZ079-100>102-231100-
SOUTHWEST ILLINOIS

CITY           SKY/WX    TMP DP  RH WIND       PRES   REMARKS
ALTON          CLEAR     47  47  99 CALM      29.74S FOG
BELLEVILLE     CLEAR     50  50 100 CALM      29.71F FOG
CAHOKIA*       CLEAR     48  45  89 N10       29.73R FOG
SPARTA*        CLEAR     56  53  92 S6        29.74S
$$

ILZ064>066-069>071-074>076-080>082-084>086-088>090-092>094-231100-
SOUTH-CENTRAL ILLINOIS

CITY           SKY/WX    TMP DP  RH WIND       PRES   REMARKS
CARBONDALE     CLEAR     54  54 100 S6        29.75F
CAIRO*         FOG       51  51 100 CALM      29.77F VSB 1
EFFINGHAM*     PTCLDY    54  54 100 CALM      29.77R
MARION         CLEAR     55  55 100 S6        29.76F
CENTRALIA*     CLEAR     54  54  99 SE5       29.74S
SALEM*         PTCLDY    56  54  92 S5        29.75S
METROPOLIS*    CLEAR     55  54  97 CALM      29.79S
$$

ILZ067-068-072-073-078-083-087-091-231100-
SOUTHEAST ILLINOIS

CITY           SKY/WX    TMP DP  RH WIND       PRES   REMARKS
LAWRENCEVILLE  CLOUDY    53  53 100 S5        29.77S
FLORA*         FOG       52  51  97 S5        29.76S VSB 1
FAIRFIELD*     PTCLDY    55  55  99 S3        29.75F
HARRISBURG*    PTCLDY    55  55  99 S5        29.78S
ROBINSON*      CLOUDY    54  53  97 S5        29.77R
CARMI*         PTCLDY    50  50  99 SE3       29.78R
$$

ABBREVIATIONS USED IN REMARKS
   TC - TEMPERATURE IN CELSIUS
  WCI - WIND CHILL INDEX
   HX - HEAT INDEX
  VSB - VISIBILITY
$$





USA.gov is the U.S. government's official web portal to all federal, state and local government web resources and services.